Location: ??
(35.5052°N, 139.7262°E)
Time: 18:25:02
(UTC+00:00)

Cosmos 1447 Rocket - Pass Details

Date: 20 June 2021
Orbit: 954 x 996 km, 82.9° (Epoch: 29 July)

Event Time Altitude Azimuth Distance (km) Brightness Sun altitude
Exits shadow 13:01:46 61° 192° (SSW) 1,097 4.4 -26.4°
Maximum altitude 13:02:59 86° 275° (W) 978 4.4 -26.5°
Drops below altitude 10° 13:09:12 10° 5° (N) 2,706 7.6 -27.0°
Sets 13:11:42 0° 6° (N) 3,651 8.4 -27.2°
